Hourly Data Report for October 29, 2016

All times are specified in Local Standard Time (LST). Add 1 hour to adjust for Daylight Saving Time where and when it is observed.

KAMLOOPS A
BRITISH COLUMBIA

50°42'09.000" N
120°26'55.000" W
345.30 m
1163781
71887
YKA

Download Data

Hourly Data (October 2016)
Hourly Data Report for October 29, 2016
Temp Definition
°C
Dew Point Temp Definition
°C
Rel Hum Definition
%
Wind Dir Definition
10's deg

Wind Spd Definition
km/h
Visibility Definition
km
Stn Press Definition
kPa
Hmdx Definition


Wind Chill Definition


Weather Definition


TIME
00:00 Legend Double Dagger 6.5 4.7 88 10 15 64.4 97.68     LegendNANA
01:00 Legend Double Dagger 5.3 4.0 91 11 7 64.4 97.69     Clear
02:00 Legend Double Dagger 4.8 3.8 93 9 13 64.4 97.66     LegendNANA
03:00 Legend Double Dagger 6.3 4.6 89 11 11 64.4 97.57     LegendNANA
04:00 Legend Double Dagger 5.9 4.2 89 8 9 64.4 97.59     Mostly Cloudy
05:00 Legend Double Dagger 5.8 4.1 89 5 7 64.4 97.57     LegendNANA
06:00 Legend Double Dagger 6.4 4.7 89 10 9 48.3 97.53     LegendNANA
07:00 Legend Double Dagger 6.3 4.6 89 11 10 48.3 97.52     Cloudy
08:00 Legend Double Dagger 6.5 4.2 85 13 14 48.3 97.51     LegendNANA
09:00 Legend Double Dagger 6.8 4.3 84 13 11 48.3 97.47     LegendNANA
10:00 Legend Double Dagger 7.4 4.4 81 12 8 48.3 97.47     Cloudy
11:00 Legend Double Dagger 7.6 4.6 81 10 10 48.3 97.44     LegendNANA
12:00 Legend Double Dagger 8.5 4.9 78 11 10 48.3 97.34     LegendNANA
13:00 Legend Double Dagger 8.9 4.9 76 11 13 64.4 97.24     Cloudy
14:00 Legend Double Dagger 9.4 5.2 75 10 13 64.4 97.18     LegendNANA
15:00 Legend Double Dagger 9.1 5.3 77 11 13 64.4 97.17     LegendNANA
16:00 Legend Double Dagger 8.4 6.0 85 10 12 32.2 97.21     Rain
17:00 Legend Double Dagger 8.1 6.2 88 6 16 32.2 97.22     Rain
18:00 Legend Double Dagger 8.0 5.8 86 8 17 48.3 97.19     LegendNANA
19:00 Legend Double Dagger 7.4 5.2 86 7 16 64.4 97.24     Mainly Clear
20:00 Legend Double Dagger 7.0 4.8 86 35 6 64.4 97.27     LegendNANA
21:00 Legend Double Dagger 5.2 3.2 87 29 5 64.4 97.32     LegendNANA
22:00 Legend Double Dagger 5.2 3.4 88 36 2 64.4 97.35     Clear
23:00 Legend Double Dagger 4.4 2.6 88 36 3 64.4 97.38     LegendNANA

Notes on Data Quality.

Legend

  • E = Estimated
  • M = Missing
  • NA = Not Available
  • ‡ = Partner data that is not subject to review by the National Climate Archives
Date modified: